Location: Arrington
(35.8681°N, 86.7092°W)
Time: 00:19:13
(UTC+00:00)

ATLAS 2AS CENTAUR R/B - Pass Details

Date: 01 March 2020
Orbit: 929 x 1283 km, 63.7° (Epoch: 26 March)

Event Time Altitude Azimuth Distance (km) Brightness Sun altitude
Rises 09:02:55 0° 336° (NNW) 4,180 5.8 -39.3°
Reaches altitude 10° 09:06:41 10° 352° (N) 3,160 5.3 -38.6°
Maximum altitude 09:12:08 21° 38° (NE) 2,357 4.9 -37.6°
Drops below altitude 10° 09:17:17 10° 85° (E) 2,970 5.7 -36.6°
Sets 09:20:39 0° 101° (E) 3,858 6.4 -36.0°
